• In Moldova, Republic
  • List of Countries
  • For 7 days
  • Water Temperature
  • Satellite Maps
  • Weather Map
  • Weather Widgets
  • user-avatar
    Login

    Hourly Weather Ondjiwa

    Today, 23 January, Monday

    Time Temperature Precipitation Wind Pressure Humidity
    00:00 +25°C° 0.7 mm 1 mps 666 mmHg 71%
    01:00 +25°C° 0 mm 1 mps 666 mmHg 74%
    02:00 +25°C° 0.4 mm 1 mps 666 mmHg 75%
    03:00 +24°C° 0.4 mm 1 mps 666 mmHg 76%
    04:00 +24°C° 0.4 mm 1 mps 666 mmHg 78%
    05:00 +25°C° 0.2 mm 2 mps 666 mmHg 76%
    06:00 +25°C° 0.2 mm 2 mps 666 mmHg 75%
    07:00 +25°C° 0.2 mm 2 mps 667 mmHg 73%
    08:00 +27°C° 0.1 mm 3 mps 667 mmHg 65%
    09:00 +28°C° 0.1 mm 4 mps 667 mmHg 58%
    10:00 +30°C° 0.1 mm 4 mps 667 mmHg 50%
    11:00 +32°C° 0.1 mm 4 mps 667 mmHg 47%
    12:00 +33°C° 0.1 mm 4 mps 667 mmHg 43%
    13:00 +34°C° 0.1 mm 4 mps 666 mmHg 40%
    14:00 +34°C° 0.1 mm 3 mps 666 mmHg 40%
    15:00 +33°C° 0.1 mm 3 mps 665 mmHg 41%
    16:00 +33°C° 0.1 mm 3 mps 665 mmHg 41%
    17:00 +31°C° 0.5 mm 2 mps 664 mmHg 47%
    18:00 +29°C° 0.5 mm 2 mps 664 mmHg 54%
    19:00 +28°C° 0.5 mm 2 mps 664 mmHg 60%
    20:00 +27°C° 0.9 mm 2 mps 665 mmHg 64%
    21:00 +26°C° 0.9 mm 2 mps 665 mmHg 69%
    22:00 +26°C° 0.9 mm 2 mps 665 mmHg 73%
    23:00 +25°C° 1.9 mm 2 mps 665 mmHg 76%

    Tomorrow, 24 January, Tuesday

    Time Temperature Precipitation Wind Pressure Humidity
    00:00 +25°C° 1.9 mm 2 mps 665 mmHg 79%
    01:00 +24°C° 1.9 mm 2 mps 665 mmHg 82%
    02:00 +24°C° 1.9 mm 2 mps 664 mmHg 83%
    03:00 +24°C° 1.9 mm 2 mps 664 mmHg 83%
    04:00 +24°C° 1.9 mm 2 mps 664 mmHg 84%
    05:00 +23°C° 0.7 mm 2 mps 664 mmHg 84%
    06:00 +22°C° 0.7 mm 3 mps 665 mmHg 84%
    07:00 +22°C° 0.7 mm 3 mps 665 mmHg 83%
    08:00 +23°C° 0.5 mm 4 mps 665 mmHg 79%
    09:00 +25°C° 0.5 mm 4 mps 665 mmHg 75%
    10:00 +25°C° 0.5 mm 4 mps 666 mmHg 71%
    11:00 +26°C° 1.5 mm 4 mps 666 mmHg 68%
    12:00 +27°C° 1.5 mm 4 mps 665 mmHg 65%
    13:00 +28°C° 1.5 mm 4 mps 665 mmHg 62%
    14:00 +27°C° 2.5 mm 4 mps 665 mmHg 66%
    15:00 +26°C° 2.5 mm 4 mps 664 mmHg 70%
    16:00 +25°C° 2.5 mm 4 mps 664 mmHg 74%
    17:00 +23°C° 1.7 mm 4 mps 664 mmHg 78%
    18:00 +22°C° 1.7 mm 4 mps 664 mmHg 82%
    19:00 +21°C° 1.7 mm 4 mps 665 mmHg 86%
    20:00 +21°C° 0.5 mm 4 mps 665 mmHg 86%
    21:00 +20°C° 0.5 mm 4 mps 666 mmHg 87%
    22:00 +20°C° 0.5 mm 4 mps 666 mmHg 87%
    23:00 +20°C° 0.8 mm 4 mps 666 mmHg 88%

    Day after tomorrow, 25 January, Wednesday

    Time Temperature Precipitation Wind Pressure Humidity
    00:00 +20°C° 0.8 mm 4 mps 666 mmHg 88%
    01:00 +19°C° 0.8 mm 5 mps 666 mmHg 88%
    02:00 +19°C° 0.5 mm 4 mps 665 mmHg 88%
    03:00 +19°C° 0.5 mm 4 mps 665 mmHg 88%
    04:00 +19°C° 0.5 mm 4 mps 665 mmHg 88%
    05:00 +19°C° 0.1 mm 4 mps 665 mmHg 88%
    06:00 +19°C° 0.1 mm 4 mps 666 mmHg 88%
    07:00 +19°C° 0.1 mm 4 mps 666 mmHg 88%
    08:00 +19°C° 0 mm 4 mps 667 mmHg 84%
    09:00 +20°C° 0 mm 3 mps 667 mmHg 80%
    10:00 +21°C° 0 mm 3 mps 668 mmHg 77%
    11:00 +22°C° 0 mm 3 mps 667 mmHg 72%
    12:00 +24°C° 0 mm 3 mps 667 mmHg 67%
    13:00 +25°C° 0 mm 3 mps 667 mmHg 63%
    14:00 +25°C° 0 mm 3 mps 667 mmHg 62%
    15:00 +25°C° 0 mm 4 mps 667 mmHg 62%
    16:00 +25°C° 0 mm 4 mps 666 mmHg 61%
    17:00 +23°C° 0 mm 4 mps 666 mmHg 64%
    18:00 +22°C° 0 mm 3 mps 667 mmHg 67%
    19:00 +21°C° 0 mm 3 mps 667 mmHg 71%
    20:00 +21°C° 0 mm 3 mps 667 mmHg 72%
    21:00 +20°C° 0 mm 2 mps 668 mmHg 73%
    22:00 +20°C° 0 mm 2 mps 668 mmHg 74%
    23:00 +19°C° 0 mm 2 mps 668 mmHg 76%

    26 January, Thursday

    Time Temperature Precipitation Wind Pressure Humidity
    00:00 +19°C° 0 mm 2 mps 667 mmHg 77%
    01:00 +19°C° 0 mm 1 mps 667 mmHg 78%
    02:00 +19°C° 0 mm 1 mps 667 mmHg 79%
    03:00 +19°C° 0 mm 1 mps 666 mmHg 80%
    04:00 +18°C° 0 mm 1 mps 666 mmHg 80%
    05:00 +19°C° 0 mm 1 mps 667 mmHg 78%
    06:00 +19°C° 0 mm 1 mps 667 mmHg 75%
    07:00 +20°C° 0 mm 1 mps 667 mmHg 73%
    08:00 +22°C° 0 mm 1 mps 668 mmHg 62%
    09:00 +24°C° 0 mm 1 mps 668 mmHg 52%
    10:00 +26°C° 0 mm 2 mps 669 mmHg 41%
    11:00 +27°C° 0 mm 2 mps 668 mmHg 38%
    12:00 +29°C° 0 mm 2 mps 668 mmHg 35%
    13:00 +30°C° 0 mm 2 mps 667 mmHg 31%
    14:00 +31°C° 0 mm 2 mps 667 mmHg 30%
    15:00 +31°C° 0 mm 3 mps 666 mmHg 29%
    16:00 +33°C° 0 mm 3 mps 666 mmHg 28%
    17:00 +30°C° 0 mm 2 mps 666 mmHg 32%
    18:00 +28°C° 0 mm 2 mps 666 mmHg 35%
    19:00 +26°C° 0 mm 2 mps 666 mmHg 39%
    20:00 +25°C° 0 mm 2 mps 666 mmHg 40%
    21:00 +25°C° 0 mm 2 mps 666 mmHg 42%
    22:00 +24°C° 0 mm 2 mps 667 mmHg 43%
    23:00 +23°C° 0 mm 2 mps 667 mmHg 46%

    27 January, Friday

    Time Temperature Precipitation Wind Pressure Humidity
    00:00 +21°C° 0 mm 2 mps 666 mmHg 48%
    01:00 +21°C° 0 mm 3 mps 666 mmHg 51%
    02:00 +20°C° 0 mm 2 mps 666 mmHg 53%
    03:00 +20°C° 0 mm 2 mps 666 mmHg 55%
    04:00 +19°C° 0 mm 2 mps 665 mmHg 58%
    05:00 +20°C° 0 mm 2 mps 666 mmHg 57%
    06:00 +20°C° 0 mm 2 mps 666 mmHg 56%
    07:00 +22°C° 0 mm 1 mps 667 mmHg 55%
    08:00 +24°C° 0 mm 1 mps 667 mmHg 49%
    09:00 +26°C° 0 mm 1 mps 668 mmHg 43%
    10:00 +29°C° 0 mm 1 mps 668 mmHg 37%
    11:00 +30°C° 0 mm 1 mps 668 mmHg 34%
    12:00 +31°C° 0 mm 1 mps 667 mmHg 30%
    13:00 +34°C° 0 mm 2 mps 667 mmHg 26%
    14:00 +34°C° 0 mm 2 mps 667 mmHg 25%
    15:00 +34°C° 0 mm 2 mps 666 mmHg 25%
    16:00 +34°C° 0 mm 2 mps 665 mmHg 24%
    17:00 +32°C° 0 mm 2 mps 665 mmHg 27%
    18:00 +30°C° 0 mm 2 mps 665 mmHg 31%
    19:00 +29°C° 0 mm 2 mps 666 mmHg 34%
    20:00 +28°C° 0 mm 2 mps 666 mmHg 34%
    21:00 +27°C° 0 mm 2 mps 666 mmHg 34%
    22:00 +26°C° 0 mm 3 mps 666 mmHg 34%
    23:00 +25°C° 0 mm 3 mps 666 mmHg 33%

    28 January, Saturday

    Time Temperature Precipitation Wind Pressure Humidity
    00:00 +24°C° 0 mm 3 mps 666 mmHg 33%
    01:00 +22°C° 0 mm 3 mps 665 mmHg 32%
    02:00 +21°C° 0 mm 3 mps 665 mmHg 36%
    03:00 +21°C° 0 mm 3 mps 665 mmHg 39%
    04:00 +20°C° 0 mm 3 mps 665 mmHg 43%
    05:00 +21°C° 0 mm 3 mps 665 mmHg 44%
    06:00 +21°C° 0 mm 3 mps 666 mmHg 46%
    07:00 +21°C° 0 mm 3 mps 666 mmHg 47%
    08:00 +24°C° 0 mm 3 mps 667 mmHg 45%
    09:00 +27°C° 0 mm 3 mps 667 mmHg 42%
    10:00 +29°C° 0 mm 2 mps 667 mmHg 39%
    11:00 +31°C° 0 mm 2 mps 667 mmHg 35%
    12:00 +33°C° 0 mm 3 mps 667 mmHg 30%
    13:00 +35°C° 0 mm 3 mps 666 mmHg 25%
    14:00 +35°C° 0 mm 3 mps 666 mmHg 24%
    15:00 +35°C° 0 mm 3 mps 666 mmHg 22%
    16:00 +35°C° 0 mm 3 mps 665 mmHg 21%
    17:00 +34°C° 0 mm 3 mps 665 mmHg 23%
    18:00 +31°C° 0 mm 3 mps 666 mmHg 24%
    19:00 +29°C° 0 mm 2 mps 666 mmHg 26%
    20:00 +28°C° 0.2 mm 3 mps 666 mmHg 30%
    21:00 +27°C° 0.2 mm 3 mps 666 mmHg 33%
    22:00 +25°C° 0.2 mm 3 mps 666 mmHg 37%
    23:00 +25°C° 0 mm 3 mps 666 mmHg 41%
    Show more